Regional Weather Roundup
Issued by NWS Memphis, TN

Home | Current Version | Previous Version | Text Only | Print | Product List | Glossary On
Versions: 1 2 3 4 5 6 7 8 9 10 11 12 13 14 15 16 17 18 19 20 21 22 23 24 25 26 27 28 29 30 31 32 33 34 35 36 37 38 39 40 41 42 43 44 45 46 47 48 49 50
000
ASUS44 KMEG 240810
RWRMEG
MEMPHIS CWA HOURLY WEATHER ROUNDUP
NATIONAL WEATHER SERVICE MEMPHIS TN
200 AM CST FRI FEB 24 2017

...WEST TENNESSEE...

CITY           SKY/WX    TMP DP  RH WIND       PRES   REMARKS
MEMPHIS INTL   CLEAR     63  59  87 S12       29.67F
NWS MEMPHIS      N/A     64 N/A N/A MISG        N/A
JACKSON        CLEAR     63  58  83 S10G18    29.70S
BOLIVAR        CLEAR     63  57  82 SE10      29.70F
SAVANNAH       CLOUDY    63  55  77 S9        29.73S
UNION CITY     CLEAR     63  63 100 S8        29.64R
PARIS          CLEAR     61  54  77 S15       29.67F
HUNTINGDON     PTCLDY    63  57  82 S13       29.67F


...EASTERN ARKANSAS...

CITY           SKY/WX    TMP DP  RH WIND       PRES   REMARKS
JONESBORO      CLEAR     60  57  89 S15       29.60F
WEST MEMPHIS   CLEAR     62  59  90 S10       29.65S
BATESVILLE     CLEAR     63  54  72 SE7       29.58F
NEWPORT        CLEAR     60  55  83 S17       29.59
WALNUT RIDGE   CLEAR     63  52  67 S16       29.57F
BLYTHEVILLE    CLEAR     63  58  83 S12       29.63S
SEARCY         CLEAR     63  57  81 S8        29.62S
STUTTGART      CLEAR     64  50  59 S16       29.64S
PINE BLUFF     CLEAR     62  54  74 S15       29.63F
MONTICELLO     CLEAR     63  55  75 S8        29.67S


...NORTH MISSISSIPPI...

CITY           SKY/WX    TMP DP  RH WIND       PRES   REMARKS
TUPELO         CLEAR     60  55  83 S8        29.75S
OXFORD         CLEAR     59  57  94 S8        29.74S
BATESVILLE     CLEAR     63  57  81 S9        29.72R
TUNICA         CLEAR     57  55  94 S12       29.69S
CORINTH        CLEAR     61  55  82 S9        29.74R
GREENWOOD      PTCLDY    60  54  80 S8        29.72S
COLUMBUS       CLEAR     56  55  96 S5        29.77S
STARKVILLE     CLEAR     57  55  94 S5        29.79R
GOLDEN TRIANGL CLEAR     57  52  82 S8        29.74S


...SOUTHEAST MISSOURI...

CITY           SKY/WX    TMP DP  RH WIND       PRES   REMARKS
KENNETT        PTCLDY    63  59  88 S14       29.61S
MALDEN         CLEAR     61  57  88 S13       29.61F
WEST PLAINS    CLEAR     62  54  74 S9        29.54F
POPLAR BLUFF   CLEAR     61  57  87 S13       29.58F
CAPE GIRARDEAU CLEAR     62  56  80 S16       29.59F


...NORTHWEST ALABAMA...

CITY           SKY/WX    TMP DP  RH WIND       PRES   REMARKS
MUSCLE SHOALS  MOCLDY    62  56  80 SE6       29.79S


...MIDDLE TENNESSEE...

CITY           SKY/WX    TMP DP  RH WIND       PRES   REMARKS
NASHVILLE      CLEAR     65  55  70 S14       29.75F
CLARKSVILLE    PTCLDY    65  54  67 S14G22    29.70F
COLUMBIA       CLEAR     64  64 100 S9        29.75S


...WESTERN KENTUCKY...

CITY           SKY/WX    TMP DP  RH WIND       PRES   REMARKS
PADUCAH        PTCLDY    65  56  72 S9        29.63R
FORT CAMPBELL  CLEAR     65  56  71 S15G23    29.69S


...CENTRAL ARKANSAS...

CITY           SKY/WX    TMP DP  RH WIND       PRES   REMARKS
LITTLE ROCK    CLEAR     62  55  77 S14G22    29.60F


SKY/WX REPORTED AS FAIR MEANS FEW OR NO CLOUDS BELOW
12 THOUSAND FEET.




USA.gov is the U.S. government's official web portal to all federal, state and local government web resources and services.